| time (UTC) | temp F | wind direction | speed knots | gust knots | rain 1hr in | rain 24hr in | rain mn in | humidity % | barometer mb |
| 20260506182008 | 35 | 347 | 0.9 | 5.2 | 0.06 | 0.22 | 0.11 | 86 | 1021.2 |
| 20260506181520 | 34 | 57 | 1.7 | 3.5 | 0.06 | 0.22 | 0.11 | 86 | 1021.2 |
| 20260506181009 | 34 | 46 | 1.7 | 7.0 | 0.05 | 0.22 | 0.10 | 85 | 1021.3 |
| 20260506180502 | 34 | 301 | 0.9 | 7.0 | 0.05 | 0.22 | 0.10 | 87 | 1021.3 |
| 20260506180005 | 34 | 347 | 1.7 | 5.2 | 0.05 | 0.22 | 0.09 | 88 | 1021.4 |
| 20260506175503 | 34 | 348 | 1.7 | 5.2 | 0.05 | 0.23 | 0.09 | 88 | 1021.3 |
| 20260506175003 | 34 | 340 | 1.7 | 3.5 | 0.04 | 0.23 | 0.08 | 88 | 1021.2 |
| 20260506174514 | 34 | 321 | 0.9 | 3.5 | 0.03 | 0.22 | 0.07 | 89 | 1021.2 |
| 20260506174008 | 34 | 346 | 0.9 | 3.5 | 0.03 | 0.22 | 0.07 | 92 | 1021.1 |
| 20260506173509 | 33 | 290 | 0.0 | 4.3 | 0.03 | 0.21 | 0.06 | 91 | 1021.2 |
| 20260506173031 | 33 | 333 | 0.9 | 5.2 | 0.03 | 0.22 | 0.06 | 91 | 1021.2 |
| 20260506172503 | 33 | 352 | 2.6 | 7.0 | 0.03 | 0.22 | 0.06 | 91 | 1021.2 |
| 20260506172006 | 33 | 19 | 0.9 | 7.0 | 0.02 | 0.21 | 0.05 | 92 | 1021.2 |
| 20260506171505 | 32 | 19 | 1.7 | 5.2 | 0.02 | 0.21 | 0.05 | 92 | 1021.2 |
| 20260506171004 | 32 | 342 | 1.7 | 5.2 | 0.03 | 0.21 | 0.05 | 92 | 1021.1 |
| 20260506170505 | 32 | 352 | 1.7 | 6.1 | 0.03 | 0.21 | 0.05 | 92 | 1021.1 |
| 20260506170016 | 32 | 347 | 3.5 | 7.8 | 0.02 | 0.20 | 0.04 | 92 | 1021.0 |
| 20260506165508 | 31 | 30 | 2.6 | 7.8 | 0.02 | 0.20 | 0.04 | 91 | 1021.0 |
| 20260506165007 | 31 | 347 | 2.6 | 7.8 | 0.02 | 0.20 | 0.04 | 92 | 1021.0 |
| 20260506164525 | 31 | 346 | 1.7 | 5.2 | 0.02 | 0.20 | 0.04 | 92 | 1021.0 |
| 20260506164005 | 31 | 17 | 2.6 | 7.8 | 0.02 | 0.21 | 0.04 | 92 | 1020.9 |
| 20260506163504 | 31 | 348 | 3.5 | 7.8 | 0.01 | 0.20 | 0.03 | 92 | 1020.7 |
| 20260506163008 | 32 | 352 | 2.6 | 5.2 | 0.01 | 0.20 | 0.03 | 92 | 1020.7 |
| 20260506162504 | 32 | 9 | 1.7 | 5.2 | 0.01 | 0.20 | 0.03 | 92 | 1020.6 |
| 20260506162009 | 32 | 350 | 1.7 | 5.2 | 0.01 | 0.20 | 0.03 | 93 | 1020.5 |
| 20260506161520 | 32 | 38 | 1.7 | 2.6 | 0.01 | 0.20 | 0.03 | 93 | 1020.4 |
| 20260506161010 | 32 | 5 | 0.9 | 2.6 | 0.00 | 0.20 | 0.02 | 92 | 1020.3 |
| 20260506160513 | 32 | 328 | 0.0 | 0.9 | 0.00 | 0.20 | 0.02 | 93 | 1020.3 |
| 20260506160006 | 31 | 327 | 0.0 | 1.7 | 0.00 | 0.20 | 0.02 | 93 | 1020.2 |
| 20260506155504 | 31 | 328 | 0.0 | 1.7 | 0.00 | 0.20 | 0.02 | 92 | 1020.2 |
| 20260506155006 | 32 | 329 | 0.0 | 1.7 | 0.00 | 0.20 | 0.02 | 93 | 1020.2 |
| 20260506154513 | 31 | 336 | 0.0 | 0.0 | 0.00 | 0.21 | 0.02 | 93 | 1020.3 |
| 20260506154008 | 31 | 328 | 0.0 | 0.0 | 0.01 | 0.21 | 0.02 | 93 | 1020.3 |
| 20260506153507 | 31 | 327 | 0.0 | 0.0 | 0.01 | 0.21 | 0.02 | 93 | 1020.3 |
| 20260506153022 | 31 | 325 | 0.0 | 0.0 | 0.01 | 0.22 | 0.02 | 93 | 1020.0 |
| 20260506152508 | 31 | 321 | 0.0 | 0.0 | 0.01 | 0.22 | 0.02 | 93 | 1020.0 |
| 20260506152004 | 31 | 317 | 0.0 | 0.0 | 0.01 | 0.22 | 0.02 | 93 | 1019.9 |
| 20260506151507 | 31 | 323 | 0.0 | 0.0 | 0.01 | 0.23 | 0.02 | 93 | 1020.0 |
| 20260506151004 | 31 | 328 | 0.0 | 0.0 | 0.01 | 0.23 | 0.02 | 93 | 1020.1 |
| 20260506150505 | 31 | 316 | 0.0 | 0.0 | 0.01 | 0.23 | 0.02 | 93 | 1020.0 |
| 20260506150018 | 31 | 340 | 0.0 | 0.0 | 0.01 | 0.24 | 0.02 | 94 | 1019.9 |
| 20260506145506 | 31 | 42 | 0.0 | 0.0 | 0.01 | 0.24 | 0.02 | 94 | 1019.9 |
| 20260506145011 | 31 | 315 | 0.0 | 0.0 | 0.01 | 0.24 | 0.02 | 93 | 1019.8 |
| 20260506144529 | 31 | 5 | 0.0 | 0.0 | 0.01 | 0.25 | 0.02 | 94 | 1019.8 |
| 20260506144004 | 31 | 5 | 0.0 | 0.0 | 0.00 | 0.24 | 0.01 | 94 | 1019.6 |
| 20260506143504 | 31 | 9 | 0.0 | 0.0 | 0.00 | 0.25 | 0.01 | 94 | 1019.6 |
| 20260506143022 | 31 | 11 | 0.0 | 0.0 | 0.00 | 0.25 | 0.01 | 94 | 1019.6 |
| 20260506142506 | 31 | 12 | 0.0 | 0.0 | 0.00 | 0.26 | 0.01 | 94 | 1019.5 |
| 20260506142008 | 31 | 13 | 0.0 | 0.0 | 0.00 | 0.26 | 0.01 | 95 | 1019.6 |
| 20260506141523 | 31 | 13 | 0.0 | 0.0 | 0.00 | 0.27 | 0.01 | 95 | 1019.4 |
| 20260506141011 | 31 | 14 | 0.0 | 0.0 | 0.00 | 0.27 | 0.01 | 94 | 1019.4 |
| 20260506140511 | 31 | 14 | 0.0 | 0.0 | 0.00 | 0.28 | 0.01 | 94 | 1019.4 |
| 20260506140005 | 31 | 14 | 0.0 | 0.0 | 0.00 | 0.28 | 0.01 | 95 | 1019.4 |
| 20260506135506 | 31 | 15 | 0.0 | 0.0 | 0.00 | 0.29 | 0.01 | 95 | 1019.3 |
| 20260506135008 | 31 | 15 | 0.0 | 0.0 | 0.00 | 0.29 | 0.01 | 95 | 1019.3 |
| 20260506134516 | 31 | 15 | 0.0 | 0.0 | 0.00 | 0.30 | 0.01 | 95 | 1019.4 |
| 20260506134008 | 31 | 15 | 0.0 | 0.0 | 0.00 | 0.30 | 0.01 | 95 | 1019.4 |
| 20260506133516 | 31 | 15 | 0.0 | 0.0 | 0.00 | 0.30 | 0.01 | 95 | 1019.3 |
| 20260506133026 | 31 | 15 | 0.0 | 0.0 | 0.00 | 0.30 | 0.01 | 95 | 1019.1 |
| 20260506132517 | 31 | 15 | 0.0 | 0.0 | 0.00 | 0.30 | 0.01 | 95 | 1019.1 |
| 20260506132005 | 31 | 15 | 0.0 | 0.0 | 0.00 | 0.31 | 0.01 | 95 | 1018.9 |
| 20260506131508 | 31 | 15 | 0.0 | 0.0 | 0.00 | 0.31 | 0.01 | 95 | 1018.8 |
| 20260506131004 | 31 | 15 | 0.0 | 0.0 | 0.00 | 0.31 | 0.01 | 95 | 1018.7 |
| 20260506130507 | 31 | 15 | 0.0 | 0.0 | 0.00 | 0.31 | 0.01 | 95 | 1018.7 |
| 20260506130020 | 31 | 16 | 0.0 | 0.0 | 0.00 | 0.31 | 0.01 | 95 | 1018.6 |
| 20260506125508 | 31 | 16 | 0.0 | 0.0 | 0.00 | 0.31 | 0.01 | 95 | 1018.4 |
| 20260506125010 | 31 | 16 | 0.0 | 0.0 | 0.00 | 0.31 | 0.01 | 95 | 1018.2 |
| 20260506124527 | 31 | 32 | 0.0 | 0.0 | 0.00 | 0.31 | 0.01 | 95 | 1018.2 |
| 20260506124007 | 31 | 32 | 0.0 | 0.0 | 0.00 | 0.31 | 0.01 | 95 | 1018.1 |
| 20260506123503 | 31 | 32 | 0.0 | 0.0 | 0.00 | 0.31 | 0.01 | 95 | 1018.2 |
| 20260506123015 | 31 | 32 | 0.0 | 0.0 | 0.00 | 0.32 | 0.01 | 95 | 1018.0 |
| 20260506122508 | 31 | 32 | 0.0 | 0.0 | 0.00 | 0.32 | 0.01 | 95 | 1018.0 |
| 20260506122007 | 31 | 32 | 0.0 | 0.0 | 0.00 | 0.32 | 0.01 | 95 | 1017.9 |
| 20260506121522 | 31 | 30 | 0.0 | 0.0 | 0.00 | 0.32 | 0.01 | 95 | 1018.0 |
| 20260506121011 | 31 | 30 | 0.0 | 0.0 | 0.00 | 0.32 | 0.01 | 95 | 1018.1 |
| 20260506120506 | 31 | 30 | 0.0 | 0.0 | 0.00 | 0.32 | 0.01 | 95 | 1018.1 |
| 20260506120014 | 31 | 30 | 0.0 | 0.0 | 0.00 | 0.32 | 0.01 | 95 | 1017.8 |
| 20260506115507 | 31 | 30 | 0.0 | 0.0 | 0.00 | 0.32 | 0.01 | 95 | 1017.7 |
| 20260506115007 | 31 | 19 | 0.0 | 0.0 | 0.00 | 0.33 | 0.01 | 95 | 1017.6 |
| 20260506114519 | 31 | 17 | 0.0 | 0.0 | 0.00 | 0.33 | 0.01 | 95 | 1017.7 |
| 20260506114007 | 31 | 13 | 0.0 | 0.0 | 0.00 | 0.33 | 0.01 | 95 | 1017.7 |
| 20260506113507 | 31 | 13 | 0.0 | 0.0 | 0.00 | 0.34 | 0.01 | 95 | 1017.7 |
| 20260506113005 | 31 | 13 | 0.0 | 0.0 | 0.00 | 0.34 | 0.01 | 95 | 1017.6 |
| 20260506112503 | 31 | 13 | 0.0 | 0.0 | 0.00 | 0.34 | 0.01 | 95 | 1017.6 |
| 20260506112003 | 31 | 13 | 0.0 | 0.0 | 0.00 | 0.35 | 0.01 | 95 | 1017.5 |
| 20260506111511 | 32 | 13 | 0.0 | 0.0 | 0.00 | 0.35 | 0.01 | 95 | 1017.5 |
| 20260506111006 | 32 | 13 | 0.0 | 0.0 | 0.00 | 0.35 | 0.01 | 95 | 1017.4 |
| 20260506110506 | 32 | 13 | 0.0 | 0.0 | 0.00 | 0.35 | 0.01 | 95 | 1017.3 |
| 20260506110024 | 32 | 13 | 0.0 | 0.0 | 0.00 | 0.35 | 0.01 | 95 | 1017.2 |
| 20260506105510 | 31 | 13 | 0.0 | 0.0 | 0.00 | 0.35 | 0.01 | 95 | 1017.3 |
| 20260506105005 | 31 | 329 | 0.0 | 0.0 | 0.00 | 0.36 | 0.01 | 95 | 1017.3 |
| 20260506104506 | 31 | 329 | 0.0 | 0.0 | 0.00 | 0.36 | 0.01 | 95 | 1017.3 |
| 20260506104003 | 31 | 329 | 0.0 | 0.0 | 0.00 | 0.36 | 0.01 | 95 | 1017.1 |
| 20260506103509 | 31 | 329 | 0.0 | 0.0 | 0.00 | 0.37 | 0.01 | 95 | 1017.1 |
| 20260506103014 | 31 | 329 | 0.0 | 0.0 | 0.00 | 0.37 | 0.01 | 95 | 1017.2 |
| 20260506102507 | 31 | 329 | 0.0 | 0.0 | 0.00 | 0.38 | 0.01 | 95 | 1017.2 |
| 20260506102010 | 31 | 329 | 0.0 | 0.0 | 0.00 | 0.38 | 0.01 | 95 | 1017.2 |
| 20260506101539 | 31 | 329 | 0.0 | 0.0 | 0.00 | 0.38 | 0.01 | 95 | 1017.2 |
| 20260506101009 | 31 | 329 | 0.0 | 0.0 | 0.00 | 0.38 | 0.01 | 95 | 1017.3 |
| 20260506100503 | 31 | 329 | 0.0 | 0.0 | 0.00 | 0.38 | 0.01 | 95 | 1017.4 |
| 20260506100011 | 31 | 329 | 0.0 | 0.0 | 0.00 | 0.38 | 0.01 | 95 | 1017.4 |
| 20260506095506 | 31 | 329 | 0.0 | 0.0 | 0.00 | 0.39 | 0.01 | 95 | 1017.4 |
| 20260506095007 | 31 | 337 | 0.0 | 0.0 | 0.00 | 0.39 | 0.01 | 95 | 1017.5 |
| 20260506094524 | 31 | 337 | 0.0 | 0.0 | 0.00 | 0.40 | 0.01 | 95 | 1017.5 |
| 20260506094008 | 31 | 337 | 0.0 | 0.0 | 0.00 | 0.41 | 0.01 | 95 | 1017.5 |
| 20260506093509 | 31 | 337 | 0.0 | 0.0 | 0.00 | 0.42 | 0.01 | 95 | 1017.6 |
| 20260506093038 | 31 | 337 | 0.0 | 0.0 | 0.00 | 0.43 | 0.01 | 95 | 1017.3 |
| 20260506092504 | 31 | 337 | 0.0 | 0.0 | 0.00 | 0.45 | 0.01 | 95 | 1017.3 |
| 20260506092011 | 31 | 337 | 0.0 | 0.0 | 0.01 | 0.47 | 0.01 | 95 | 1017.3 |
| 20260506091514 | 31 | 338 | 0.0 | 0.0 | 0.01 | 0.48 | 0.01 | 95 | 1017.3 |
| 20260506091005 | 31 | 327 | 0.0 | 0.0 | 0.01 | 0.48 | 0.01 | 95 | 1017.1 |
| 20260506090507 | 31 | 327 | 0.0 | 0.0 | 0.01 | 0.48 | 0.01 | 95 | 1017.3 |
| 20260506090026 | 31 | 329 | 0.0 | 0.0 | 0.01 | 0.48 | 0.01 | 95 | 1017.3 |
| 20260506085507 | 31 | 321 | 0.0 | 0.0 | 0.01 | 0.48 | 0.01 | 95 | 1017.3 |
| 20260506085007 | 31 | 315 | 0.0 | 0.0 | 0.01 | 0.48 | 0.01 | 95 | 1017.3 |
| 20260506084505 | 31 | 313 | 0.0 | 0.0 | 0.01 | 0.48 | 0.01 | 95 | 1017.4 |
| 20260506084004 | 31 | 318 | 0.0 | 0.0 | 0.01 | 0.48 | 0.01 | 95 | 1017.4 |
| 20260506083508 | 31 | 310 | 0.0 | 1.7 | 0.01 | 0.48 | 0.01 | 95 | 1017.3 |
| 20260506083017 | 31 | 315 | 0.0 | 1.7 | 0.01 | 0.48 | 0.01 | 95 | 1017.3 |
| 20260506082508 | 31 | 333 | 0.0 | 1.7 | 0.01 | 0.48 | 0.01 | 95 | 1017.4 |
| 20260506082011 | 32 | 320 | 0.0 | 1.7 | 0.00 | 0.47 | 0.00 | 95 | 1017.3 |
| 20260506081533 | 32 | 321 | 0.0 | 1.7 | 0.00 | 0.47 | 0.00 | 95 | 1017.3 |
| 20260506081007 | 32 | 310 | 0.0 | 1.7 | 0.00 | 0.47 | 0.00 | 95 | 1017.3 |
| 20260506080503 | 32 | 322 | 0.0 | 1.7 | 0.00 | 0.47 | 0.00 | 95 | 1017.3 |
| 20260506073511 | 32 | 321 | 0.9 | 1.7 | 0.00 | 0.48 | 0.00 | 95 | 1017.8 |
| 20260506073038 | 32 | 323 | 0.0 | 1.7 | 0.00 | 0.48 | 0.00 | 95 | 1017.5 |
| 20260506072504 | 32 | 360 | 0.9 | 1.7 | 0.00 | 0.48 | 0.00 | 95 | 1017.3 |
| 20260506072006 | 32 | 350 | 0.9 | 1.7 | 0.00 | 0.48 | 0.00 | 95 | 1017.3 |
| 20260506071514 | 32 | 344 | 0.9 | 1.7 | 0.00 | 0.48 | 0.00 | 95 | 1017.3 |
| 20260506071013 | 32 | 352 | 0.9 | 2.6 | 0.00 | 0.48 | 0.00 | 95 | 1017.3 |
| 20260506070508 | 32 | 326 | 0.0 | 2.6 | 0.00 | 0.48 | 0.00 | 95 | 1017.4 |
| 20260506062507 | 32 | 334 | 0.0 | 0.0 | 0.00 | 0.48 | 0.00 | 95 | 1017.1 |
| 20260506062009 | 32 | 334 | 0.0 | 0.0 | 0.00 | 0.48 | 0.00 | 95 | 1016.8 |
| 20260506061524 | 32 | 334 | 0.0 | 0.0 | 0.00 | 0.48 | 0.00 | 95 | 1016.8 |
| 20260506061010 | 32 | 333 | 0.0 | 0.0 | 0.00 | 0.48 | 0.00 | 95 | 1016.8 |
| 20260506060511 | 32 | 335 | 0.0 | 0.0 | 0.00 | 0.48 | 0.00 | 95 | 1016.8 |
| 20260506051007 | 32 | 271 | 0.0 | 0.0 | 0.01 | 0.48 | 0.48 | 95 | 1016.6 |
| 20260506050506 | 32 | 271 | 0.0 | 0.0 | 0.01 | 0.48 | 0.48 | 95 | 1016.6 |
| 20260506045012 | 32 | 271 | 0.0 | 0.0 | 0.01 | 0.48 | 0.48 | 95 | 1016.3 |
| 20260506044557 | 32 | 265 | 0.0 | 0.0 | 0.01 | 0.48 | 0.48 | 95 | 1016.2 |
| 20260506044006 | 32 | 265 | 0.0 | 0.0 | 0.01 | 0.48 | 0.48 | 95 | 1016.1 |
| 20260506043506 | 32 | 265 | 0.0 | 0.0 | 0.01 | 0.48 | 0.48 | 95 | 1016.3 |
| 20260506043021 | 32 | 265 | 0.0 | 0.0 | 0.01 | 0.48 | 0.48 | 95 | 1016.4 |
| 20260506042509 | 32 | 265 | 0.0 | 0.0 | 0.00 | 0.47 | 0.47 | 95 | 1016.5 |
| 20260506042016 | 32 | 265 | 0.0 | 0.0 | 0.00 | 0.47 | 0.47 | 95 | 1016.4 |
| 20260506041524 | 32 | 265 | 0.0 | 0.0 | 0.00 | 0.47 | 0.47 | 95 | 1016.4 |
| 20260506041012 | 32 | 303 | 0.0 | 0.0 | 0.00 | 0.47 | 0.47 | 95 | 1016.6 |
| 20260506040511 | 32 | 343 | 0.0 | 0.0 | 0.00 | 0.47 | 0.47 | 95 | 1016.4 |
| 20260506040010 | 32 | 344 | 0.0 | 0.9 | 0.00 | 0.47 | 0.47 | 95 | 1016.3 |
| 20260506035505 | 32 | 360 | 0.0 | 0.9 | 0.00 | 0.47 | 0.47 | 95 | 1016.1 |
| 20260506035006 | 32 | 338 | 0.0 | 0.0 | 0.00 | 0.47 | 0.47 | 95 | 1016.1 |
| 20260506034542 | 32 | 338 | 0.0 | 0.0 | 0.00 | 0.47 | 0.47 | 95 | 1016.3 |
| 20260506034008 | 32 | 338 | 0.0 | 0.0 | 0.00 | 0.47 | 0.47 | 95 | 1016.3 |
| 20260506033512 | 32 | 338 | 0.0 | 0.0 | 0.00 | 0.48 | 0.47 | 95 | 1016.3 |
| 20260506033032 | 32 | 338 | 0.0 | 0.0 | 0.00 | 0.48 | 0.47 | 95 | 1016.2 |
| 20260506032509 | 32 | 338 | 0.0 | 0.9 | 0.00 | 0.48 | 0.47 | 95 | 1016.2 |
| 20260506032007 | 32 | 338 | 0.0 | 1.7 | 0.00 | 0.48 | 0.47 | 95 | 1016.3 |
| 20260506031516 | 32 | 337 | 0.0 | 2.6 | 0.00 | 0.48 | 0.47 | 95 | 1016.1 |
| 20260506031007 | 32 | 342 | 0.9 | 2.6 | 0.00 | 0.49 | 0.47 | 95 | 1015.9 |
| 20260506030509 | 32 | 341 | 0.9 | 1.7 | 0.00 | 0.50 | 0.47 | 94 | 1015.8 |
| 20260506030026 | 32 | 345 | 0.0 | 1.7 | 0.00 | 0.51 | 0.47 | 94 | 1015.7 |
| 20260506025507 | 32 | 17 | 0.0 | 1.7 | 0.00 | 0.52 | 0.47 | 94 | 1015.6 |
| 20260506025011 | 32 | 337 | 0.9 | 1.7 | 0.00 | 0.56 | 0.47 | 94 | 1015.6 |
| 20260506024529 | 32 | 330 | 0.0 | 1.7 | 0.00 | 0.58 | 0.47 | 94 | 1015.5 |
| 20260506024009 | 32 | 322 | 0.0 | 1.7 | 0.00 | 0.61 | 0.47 | 94 | 1015.3 |
| 20260506023509 | 32 | 317 | 0.0 | 0.0 | 0.00 | 0.63 | 0.47 | 94 | 1015.3 |
| 20260506023020 | 32 | 317 | 0.0 | 0.0 | 0.00 | 0.65 | 0.47 | 94 | 1015.1 |
| 20260506022509 | 32 | 317 | 0.0 | 0.0 | 0.00 | 0.67 | 0.47 | 94 | 1015.0 |
| 20260506022011 | 32 | 317 | 0.0 | 0.9 | 0.00 | 0.68 | 0.47 | 94 | 1014.9 |
| 20260506021530 | 32 | 317 | 0.0 | 0.9 | 0.00 | 0.68 | 0.47 | 94 | 1014.8 |
| 20260506021010 | 32 | 327 | 0.0 | 0.9 | 0.00 | 0.68 | 0.47 | 94 | 1014.8 |
| 20260506020510 | 32 | 329 | 0.0 | 0.9 | 0.00 | 0.68 | 0.47 | 94 | 1014.9 |
| 20260506020028 | 33 | 342 | 0.0 | 0.9 | 0.00 | 0.68 | 0.47 | 94 | 1014.5 |
| 20260506015508 | 33 | 338 | 0.0 | 1.7 | 0.00 | 0.69 | 0.47 | 94 | 1014.5 |
| 20260506015011 | 33 | 346 | 0.0 | 1.7 | 0.00 | 0.69 | 0.47 | 94 | 1014.5 |
| 20260506014528 | 33 | 326 | 0.0 | 1.7 | 0.00 | 0.69 | 0.47 | 94 | 1014.6 |
| 20260506014008 | 33 | 335 | 0.0 | 1.7 | 0.00 | 0.69 | 0.47 | 94 | 1014.5 |
| 20260506013509 | 33 | 334 | 0.0 | 2.6 | 0.00 | 0.69 | 0.47 | 94 | 1014.6 |
| 20260506013029 | 33 | 336 | 0.0 | 2.6 | 0.00 | 0.69 | 0.47 | 94 | 1014.3 |
| 20260506012507 | 33 | 336 | 0.9 | 1.7 | 0.00 | 0.69 | 0.47 | 94 | 1014.1 |
| 20260506012013 | 33 | 350 | 0.0 | 1.7 | 0.00 | 0.69 | 0.47 | 94 | 1014.2 |
| 20260506011520 | 33 | 352 | 0.0 | 2.6 | 0.00 | 0.69 | 0.47 | 94 | 1014.4 |
| 20260506011009 | 33 | 352 | 0.0 | 2.6 | 0.00 | 0.69 | 0.47 | 94 | 1014.2 |
| 20260506010507 | 33 | 329 | 0.0 | 1.7 | 0.00 | 0.69 | 0.47 | 94 | 1014.1 |
| 20260506010027 | 33 | 340 | 0.0 | 1.7 | 0.00 | 0.69 | 0.47 | 94 | 1014.1 |
| 20260506005508 | 33 | 327 | 0.0 | 1.7 | 0.00 | 0.69 | 0.47 | 94 | 1014.2 |
| 20260506005010 | 33 | 346 | 0.0 | 1.7 | 0.00 | 0.69 | 0.47 | 94 | 1014.0 |
| 20260506004553 | 33 | 339 | 0.0 | 1.7 | 0.00 | 0.69 | 0.47 | 94 | 1014.0 |
| 20260506004007 | 33 | 344 | 0.0 | 1.7 | 0.00 | 0.69 | 0.47 | 94 | 1014.0 |
| 20260506003511 | 33 | 344 | 0.0 | 1.7 | 0.00 | 0.69 | 0.47 | 94 | 1014.0 |
| 20260506003036 | 33 | 342 | 0.0 | 1.7 | 0.00 | 0.69 | 0.47 | 94 | 1014.0 |
| 20260506002511 | 33 | 328 | 0.0 | 2.6 | 0.00 | 0.69 | 0.47 | 94 | 1014.2 |
| 20260506002003 | 33 | 342 | 0.0 | 2.6 | 0.00 | 0.69 | 0.47 | 94 | 1014.1 |
| 20260506001506 | 33 | 342 | 0.9 | 3.5 | 0.00 | 0.69 | 0.47 | 94 | 1014.1 |
| 20260506001004 | 33 | 331 | 0.9 | 3.5 | 0.00 | 0.69 | 0.47 | 94 | 1014.1 |
| 20260506000507 | 33 | 336 | 0.0 | 2.6 | 0.00 | 0.69 | 0.47 | 94 | 1013.9 |
| 20260506000014 | 33 | 352 | 0.9 | 2.6 | 0.00 | 0.69 | 0.47 | 94 | 1013.9 |
| 20260505235508 | 33 | 349 | 0.0 | 1.7 | 0.00 | 0.69 | 0.47 | 94 | 1014.0 |
| 20260505235009 | 33 | 345 | 0.0 | 1.7 | 0.00 | 0.69 | 0.47 | 94 | 1014.0 |
| 20260505234536 | 33 | 268 | 0.0 | 1.7 | 0.00 | 0.69 | 0.47 | 94 | 1013.8 |
| 20260505234004 | 33 | 234 | 0.0 | 2.6 | 0.00 | 0.69 | 0.47 | 94 | 1013.9 |
| 20260505233506 | 32 | 344 | 0.9 | 2.6 | 0.00 | 0.69 | 0.47 | 94 | 1013.9 |
| 20260505233009 | 32 | 265 | 0.9 | 2.6 | 0.00 | 0.69 | 0.47 | 94 | 1013.7 |
| 20260505232506 | 32 | 352 | 0.0 | 1.7 | 0.00 | 0.69 | 0.47 | 94 | 1013.6 |
| 20260505232007 | 32 | 327 | 0.0 | 3.5 | 0.00 | 0.69 | 0.47 | 94 | 1013.6 |
| 20260505231520 | 32 | 5 | 0.9 | 3.5 | 0.01 | 0.69 | 0.47 | 94 | 1013.6 |
| 20260505231009 | 32 | 360 | 0.9 | 3.5 | 0.01 | 0.69 | 0.47 | 94 | 1013.7 |
| 20260505230509 | 32 | 347 | 0.9 | 2.6 | 0.01 | 0.69 | 0.47 | 94 | 1013.7 |
| 20260505230006 | 32 | 332 | 0.9 | 3.5 | 0.01 | 0.69 | 0.47 | 94 | 1013.8 |
| 20260505225503 | 32 | 350 | 0.0 | 3.5 | 0.01 | 0.69 | 0.47 | 93 | 1013.8 |
| 20260505225004 | 33 | 317 | 1.7 | 4.3 | 0.02 | 0.69 | 0.47 | 93 | 1013.7 |
| 20260505224512 | 33 | 349 | 0.9 | 4.3 | 0.02 | 0.69 | 0.47 | 93 | 1013.9 |
| 20260505224009 | 33 | 291 | 0.9 | 3.5 | 0.02 | 0.69 | 0.47 | 93 | 1013.9 |
| 20260505223511 | 33 | 343 | 0.9 | 4.3 | 0.02 | 0.69 | 0.47 | 93 | 1013.9 |
| 20260505223023 | 33 | 325 | 1.7 | 4.3 | 0.02 | 0.69 | 0.47 | 93 | 1013.6 |
| 20260505222510 | 33 | 331 | 2.6 | 4.3 | 0.02 | 0.69 | 0.47 | 93 | 1013.5 |
| 20260505222003 | 33 | 340 | 0.9 | 4.3 | 0.02 | 0.69 | 0.47 | 93 | 1013.1 |
| 20260505221507 | 33 | 352 | 2.6 | 7.0 | 0.01 | 0.68 | 0.46 | 93 | 1013.1 |
| 20260505221003 | 33 | 30 | 1.7 | 7.0 | 0.01 | 0.68 | 0.46 | 92 | 1013.0 |
| 20260505220508 | 34 | 332 | 2.6 | 4.3 | 0.02 | 0.68 | 0.46 | 92 | 1013.7 |
| 20260505220024 | 34 | 360 | 0.9 | 7.0 | 0.02 | 0.68 | 0.46 | 92 | 1013.6 |
| 20260505215508 | 34 | 342 | 2.6 | 7.0 | 0.02 | 0.68 | 0.46 | 92 | 1013.3 |
| 20260505215010 | 34 | 351 | 1.7 | 10.4 | 0.01 | 0.67 | 0.45 | 92 | 1013.0 |
| 20260505214531 | 34 | 29 | 3.5 | 10.4 | 0.01 | 0.67 | 0.45 | 92 | 1012.9 |
| 20260505214003 | 34 | 352 | 2.6 | 11.3 | 0.01 | 0.67 | 0.45 | 93 | 1012.8 |
| 20260505213503 | 34 | 313 | 5.2 | 11.3 | 0.01 | 0.67 | 0.45 | 93 | 1012.9 |
| 20260505213008 | 34 | 42 | 3.5 | 8.7 | 0.02 | 0.67 | 0.45 | 93 | 1012.9 |
| 20260505212512 | 34 | 59 | 1.7 | 10.4 | 0.02 | 0.67 | 0.45 | 93 | 1013.0 |
| 20260505212015 | 34 | 325 | 2.6 | 10.4 | 0.03 | 0.67 | 0.45 | 92 | 1013.1 |
| 20260505211520 | 34 | 352 | 3.5 | 7.8 | 0.03 | 0.67 | 0.45 | 92 | 1013.2 |
| 20260505211008 | 35 | 54 | 0.9 | 10.4 | 0.04 | 0.67 | 0.45 | 92 | 1013.4 |
| 20260505210511 | 35 | 25 | 3.5 | 10.4 | 0.04 | 0.66 | 0.44 | 90 | 1013.4 |
| 20260505210028 | 36 | 5 | 2.6 | 10.4 | 0.04 | 0.66 | 0.44 | 89 | 1013.4 |
| 20260505205505 | 37 | 78 | 5.2 | 10.4 | 0.04 | 0.66 | 0.44 | 91 | 1013.1 |
| 20260505205007 | 38 | 352 | 2.6 | 5.2 | 0.04 | 0.66 | 0.44 | 93 | 1012.9 |
| 20260505204514 | 37 | 315 | 0.9 | 4.3 | 0.04 | 0.66 | 0.44 | 93 | 1013.0 |
| 20260505204011 | 37 | 333 | 0.9 | 4.3 | 0.04 | 0.66 | 0.44 | 92 | 1013.2 |
| 20260505203507 | 37 | 352 | 0.9 | 4.3 | 0.04 | 0.66 | 0.44 | 92 | 1013.3 |
| 20260505203025 | 37 | 5 | 0.9 | 4.3 | 0.03 | 0.65 | 0.43 | 92 | 1013.4 |
| 20260505202510 | 37 | 351 | 0.9 | 4.3 | 0.03 | 0.65 | 0.43 | 92 | 1013.5 |
| 20260505202016 | 37 | 335 | 1.7 | 2.6 | 0.02 | 0.64 | 0.42 | 92 | 1013.7 |
| 20260505201511 | 37 | 296 | 0.9 | 5.2 | 0.02 | 0.64 | 0.42 | 91 | 1013.7 |
| 20260505201004 | 37 | 338 | 1.7 | 5.2 | 0.01 | 0.63 | 0.41 | 91 | 1013.6 |
| 20260505200507 | 37 | 342 | 1.7 | 3.5 | 0.00 | 0.62 | 0.40 | 92 | 1013.8 |
| 20260505200020 | 37 | 9 | 1.7 | 3.5 | 0.01 | 0.62 | 0.40 | 92 | 1014.0 |
| 20260505195507 | 37 | 317 | 1.7 | 3.5 | 0.01 | 0.62 | 0.40 | 91 | 1013.9 |
| 20260505195016 | 37 | 29 | 2.6 | 3.5 | 0.01 | 0.62 | 0.40 | 92 | 1013.6 |
| 20260505194534 | 37 | 5 | 0.9 | 3.5 | 0.01 | 0.62 | 0.40 | 92 | 1013.6 |
| 20260505194010 | 37 | 319 | 0.9 | 4.3 | 0.02 | 0.62 | 0.40 | 92 | 1013.6 |
| 20260505193504 | 37 | 15 | 1.7 | 4.3 | 0.02 | 0.62 | 0.40 | 92 | 1013.8 |
| 20260505193031 | 37 | 38 | 0.9 | 2.6 | 0.02 | 0.62 | 0.40 | 92 | 1013.9 |
| 20260505192507 | 37 | 333 | 1.7 | 3.5 | 0.03 | 0.62 | 0.40 | 92 | 1013.9 |
| 20260505192009 | 37 | 45 | 0.9 | 3.5 | 0.03 | 0.62 | 0.40 | 92 | 1013.9 |
| 20260505191532 | 37 | 33 | 1.7 | 2.6 | 0.03 | 0.62 | 0.40 | 92 | 1013.8 |
| 20260505191014 | 37 | 349 | 0.9 | 2.6 | 0.04 | 0.62 | 0.40 | 92 | 1013.6 |
| 20260505190511 | 37 | 302 | 0.0 | 1.7 | 0.04 | 0.62 | 0.40 | 93 | 1013.7 |
| 20260505190029 | 37 | 352 | 0.0 | 2.6 | 0.04 | 0.61 | 0.39 | 93 | 1013.7 |
| 20260505185504 | 36 | 350 | 0.9 | 2.6 | 0.05 | 0.61 | 0.39 | 92 | 1013.8 |
| 20260505185004 | 36 | 340 | 0.9 | 1.7 | 0.06 | 0.61 | 0.39 | 92 | 1013.8 |
| 20260505184514 | 36 | 19 | 0.9 | 1.7 | 0.06 | 0.61 | 0.39 | 92 | 1013.9 |
| 20260505184011 | 36 | 32 | 0.0 | 1.7 | 0.05 | 0.60 | 0.38 | 92 | 1014.0 |
| 20260505183511 | 36 | 40 | 0.9 | 1.7 | 0.05 | 0.60 | 0.38 | 93 | 1013.8 |
| 20260505183029 | 36 | 32 | 0.0 | 1.7 | 0.06 | 0.60 | 0.38 | 92 | 1013.9 |
| 20260505182510 | 36 | 344 | 0.0 | 2.6 | 0.05 | 0.58 | 0.37 | 92 | 1014.2 |